Regional Weather Roundup
Issued by NWS

Home | Current Version | Previous Version | Graphics & Text | Print | Product List | Glossary On
Versions: 1 2 3 4 5 6 7 8 9 10 11 12 13 14 15 16 17 18 19 20 21 22 23 24 25 26 27
000
ASUS45 KTFX 091010
RWRMT
MONTANA REGIONAL WEATHER ROUNDUP
NATIONAL WEATHER SERVICE GREAT FALLS MT
300 AM MST FRI DEC 09 2016

NOTE: "FAIR" INDICATES FEW OR NO CLOUDS BELOW 12000 FEET WITH NO
SIGNIFICANT WEATHER AND/OR OBSTRUCTIONS TO VISIBILITY.

MTZ001>007-043-091100-
WEST OF THE DIVIDE

CITY           SKY/WX    TMP DP  RH WIND       PRES   REMARKS
KALISPELL      CLEAR      4  -7  60 N17       30.22R WCI -16
MISSOULA       LGT SNOW  13   9  84 SE3       30.18R VSB 1
BUTTE          FLURRIES   7   0  73 S3        30.00F
MULLAN PASS    LGT SNOW   2  -2  83 SE9       29.88S VSB 3/4 WCI -13
ANACONDA         N/A      5   0  78 CALM      30.04S
DEER LODGE       N/A      3  -2  78 NW6       30.09S WCI  -8
EUREKA           N/A    -11 -17  77 CALM      30.31S
HAMILTON         N/A     12   9  85 CALM      30.13R
LIBBY            N/A      9   3  78 CALM      30.25S
PLAINS           N/A     14   4  64 N3        30.21R
RONAN            N/A     12   6  77 N7        30.18R WCI   1
$$

MTZ008-052>055-091100-
SOUTHWEST MONTANA

CITY           SKY/WX    TMP DP  RH WIND       PRES   REMARKS
BOZEMAN        LGT SNOW   5   0  79 W5        30.15S
DILLON         LGT SNOW   5  -1  76 NE9       30.06R WCI  -9
W YELLOWSTONE  LGT SNOW   9   5  85 CALM      30.02R
ENNIS          CLOUDY     5   0  78 N7        30.09S FOG     WCI  -7
THREE FORKS      N/A      3 -38  13 NW5       30.14S
TWIN BRIDGES     N/A      5  -5  63 N8        30.05S WCI  -8
$$

MTZ009-010-012-014-046-048-049-054-091100-
EAST SLOPES AND CENTRAL MONTANA

CITY           SKY/WX    TMP DP  RH WIND       PRES   REMARKS
CUT BANK       CLOUDY    -5  -8  87 SE3       30.29R
GREAT FALLS    CLOUDY    -3  -8  79 N7        30.29F WCI -16
MALMSTROM AFB  FLURRIES  -3  -6  87 NE5       30.32F
HELENA         CLOUDY     1  -7  68 NW6       30.24R WCI -10
AUGUSTA        FLURRIES  -5  -9  85 NE5       30.21R
BOWMANS CRNR   FLURRIES  -6 -10  85 NE6       30.20R WCI -19
CHOTEAU          N/A     -4  -8  84 MISG      30.30R
CONRAD           N/A     -2  -6  82 N3        30.28F
FAIRFIELD      FLURRIES  -4  -9  80 E5        30.27S
POWER          CLOUDY    -5  -9  83 NE3       30.27F
RAYNESFORD     SNOWSHWR  -4  -8  84 N1        30.25F
ULM            SNOWSHWR  -4  -8  83 S2        30.31S
$$

MTZ011-013-016-021-045-047-050-051-091100-
NORTH CENTRAL MONTANA

CITY           SKY/WX    TMP DP  RH WIND       PRES   REMARKS
HAVRE          CLOUDY     1  -4  79 E10       30.44S WCI -15
LEWISTOWN      LGT SNOW  -2  -7  79 SE6       30.22F WCI -14
N BAR RANCH    LGT SNOW  -2  -8  78 CALM      30.23S
CHINOOK          N/A      1  -6  71 E5        30.48S
DENTON         SNOWSHWR  -3  -6  85 MISG      30.27S
GEYSER         LGT SNOW  -3  -6  84 NE3       30.24F
GRASS RANGE    FLURRIES  -3  -6  86 SE1       30.25S
JUDITH GAP     LGT SNOW   1  -4  80 W6        30.16F WCI -11
ROY            MOCLDY    -3  -7  85 MISG      30.30R
STANFORD       LGT SNOW  -4  -7  87 NE5       30.20F
WINIFRED       MOCLDY    -4  -7  87 MISG      30.29R
$$

MTZ017>020-022>027-061-062-091100-
NORTHEAST MONTANA

CITY           SKY/WX    TMP DP  RH WIND       PRES   REMARKS
GLASGOW        CLOUDY    -2  -8  76 E10       30.49S WCI -19
JORDAN           N/A     -7 -12  79 CALM      30.43S
SIDNEY         CLOUDY   -16 -20  82 CALM      30.56S
WOLF POINT     CLOUDY   -11 -18  71 E5        30.56R
PLENTYWOOD       N/A     -9 -15  77 CALM      30.52S
POPLAR           N/A    -15 -20  76 CALM      30.57R
SCOBEY           N/A     -5 -15  61 CALM      30.44S
$$

MTZ028>42-056>058-091100-
SOUTHCENTRAL AND SOUTHEAST MONTANA

CITY           SKY/WX    TMP DP  RH WIND       PRES   REMARKS
BAKER          CLOUDY    -9 -14  78 SE7       30.39S WCI -24
BILLINGS       LGT SNOW   3  -1  83 NE7       30.27R FOG     WCI  -9
LIVINGSTON     LGT SNOW   4  -2  76 E9        30.15S WCI -10
MILES CITY     CLOUDY    -6 -11  79 NE10      30.41S WCI -24
BIG TIMBER     CLOUDY     3   1  92 CALM      30.21S FOG
EKALAKA          N/A     -5 -14  65 SE7       30.22F WCI -19
FORSYTH          N/A     -2  -8  78 E5        30.40R
HARLOWTON      FLURRIES   1  -3  85 S3        30.20F
LAUREL           N/A      4  -6  63 N5        30.22R
$$

REGIONAL REPORTS...DAKOTAS

CITY           SKY/WX    TMP DP  RH WIND       PRES   REMARKS
WILLISTON      CLOUDY   -16 -21  78 CALM      30.56S
MINOT          CLOUDY   -10 -15  78 W6        30.54S WCI -23
DICKINSON      CLOUDY   -18 -21  87 NW3       30.43F
BEACH            N/A    -18 -22  83 S3        30.46S FOG
CROSBY           N/A    -13 -18  77 W9        30.58R WCI -31
TIOGA            N/A    -15 -18  84 W5        30.52S
WATFORD CITY     N/A    -20 -26  76 CALM      30.54S
BISMARCK       CLOUDY   -11 -15  82 W3        30.56F
GRAND FORKS    CLOUDY     7   0  73 NW10      30.57F WCI  -8
FARGO          CLOUDY     8   1  73 W8        30.58F WCI  -4
BUFFALO SD       N/A     -9 -13  83 NE7       30.28S WCI -24
RAPID CITY     CLOUDY     0  -5  79 NE6       30.31F WCI -12
$$

REGIONAL REPORTS...WYOMING/IDAHO/WASHINGTON

CITY           SKY/WX    TMP DP  RH WIND       PRES   REMARKS
GILLETTE       CLOUDY     0  -4  83 CALM      30.14S
SHERIDAN       CLOUDY     3  -3  76 NW5       30.21R
BUFFALO WY     CLOUDY     0  -5  79 NW10G28   30.10R HAZE    WCI -16
CODY           FLURRIES   1  -2  87 NE8       30.11R WCI -13
YELLOWSTONE LA   N/A      8   6  92 CALM      29.99R
IDAHO FALLS    FLURRIES  18  14  84 N8        30.13R WCI   8
SALMON         CLOUDY    12  10  92 CALM      30.12R
BOISE          CLOUDY    25  23  92 CALM      30.14R
SPOKANE        LGT SNOW  17  12  80 NE9       30.12R VSB 1   WCI   6
$$

REGIONAL REPORTS...ALBERTA

CITY           SKY/WX    TMP DP  RH WIND       PRES   REMARKS
EDMONTON       CLEAR    -15 -22  70 SE2       30.51F
CALGARY        CRYSTALS  -6 -11  77 SE7       30.32S WCI -20
LETHBRIDGE     FLURRIES  -4  -9  77 NE2       30.40S
MEDICINE HAT   FLURRIES  -6  -9  84 NE5       30.50S
WATERTON GATE    N/A    -18 -26  69 CALM        N/A
CARDSTON         N/A     -9 -15  77 NW1         N/A
MILK RIVER       N/A    -11 -15  84 E1          N/A
$$

REGIONAL REPORTS...SASKATCHEWAN

CITY           SKY/WX    TMP DP  RH WIND       PRES   REMARKS
SWIFT CURRENT  FLURRIES  -6  -8  92 N7        30.46S WCI -20
REGINA         CLEAR    -15 -20  76 NW5       30.56S
SASKATOON      CRYSTALS -15 -20  76 NW5       30.63F
CYPRESS HILLS    N/A    -11 -17  77 SE2         N/A
ASSINIBOIA       N/A     -6 -11  77 E5          N/A
$$




USA.gov is the U.S. government's official web portal to all federal, state and local government web resources and services.